Dewpoint
34 33 32 32 35 37 37 39 40 41 40 39 38 40 38 40 40 42 44 45 45 46 45 46 45 45 45 46 46 45 45 46
33 33 32 32 37 36 35 38 37 36 35 35 36 36 37 38 39 40 43 43 44 44 44 44 44 43 44 45 43 43 43 44
33 33 33 33 35 34 34 34 35 35 34 35 36 36 36 36 39 40 42 42 42 40 43 43 43 42 42 42 41 41 41 44
33 33 34 34 35 34 32 33 34 36 37 34 36 35 35 36 37 38 40 40 40 41 41 42 42 40 39 40 40 40 41 41
33 33 34 34 35 34 33 33 33 35 37 36 36 34 33 35 36 39 39 39 39 39 40 41 41 40 39 38 39 40 41 40
33 33 33 33 35 35 34 33 33 36 37 37 36 36 36 35 36 37 38 38 39 39 40 40 40 38 38 38 38 39 39 40
33 33 32 33 35 36 35 32 33 35 35 36 36 36 36 35 35 36 37 37 37 38 38 39 38 37 37 36 37 38 38 39
33 31 30 32 34 35 34 31 31 33 34 34 35 35 34 34 34 35 36 36 36 37 37 38 37 35 35 35 36 37 37 37
33 31 30 30 32 33 30 30 30 32 33 33 34 34 34 34 35 35 35 35 36 36 37 36 36 34 34 35 35 35 36 36
33 31 31 30 31 33 33 30 29 31 32 33 33 35 35 35 35 35 35 35 34 35 35 34 33 33 33 33 33 35 34 35
34 32 31 30 31 33 33 30 30 31 32 33 33 34 34 34 34 34 34 34 34 33 33 32 31 31 31 32 31 33 33 32
34 31 31 30 30 32 32 30 30 31 31 32 34 34 33 33 33 33 32 32 32 31 30 30 30 30 29 30 31 30 32 31
33 32 31 30 29 28 30 30 30 30 30 32 33 32 31 31 31 31 31 30 30 30 29 29 28 28 28 29 31 29 28 27
33 33 32 30 28 27 27 28 28 28 28 30 31 30 30 30 30 30 29 29 28 28 29 29 28 29 27 30 27 26 26 26
36 34 33 31 29 28 27 28 28 28 28 28 29 29 29 29 29 28 28 28 28 27 28 27 28 28 28 27 26 25 25 25
33 32 32 33 32 29 28 28 27 27 27 27 28 28 27 28 27 28 27 26 26 26 25 27 28 27 28 27 26 25 24 25
33 31 30 31 31 28 27 27 27 27 27 25 26 26 26 26 26 26 26 24 25 25 25 26 27 25 29 23 23 23 23 24
31 29 29 30 27 27 25 25 26 25 25 25 25 24 24 24 24 24 23 24 24 24 25 25 25 26 25 22 21 21 22 23
30 29 29 29 25 24 24 23 24 24 24 23 23 23 23 23 22 21 22 22 22 22 22 24 24 24 22 22 20 21 21 22
Wind_Speed
19 14 12 11 8 6 4 5 4 1 3 2 3 5 7 6 7 11 9 11 13 13 12 14 14 14 14 15 15 15 16 18
19 15 12 10 9 9 5 6 3 1 4 4 5 6 5 6 6 8 7 10 10 12 12 13 13 14 16 15 14 16 17 17
22 16 12 8 8 5 6 5 4 6 6 3 1 2 1 1 9 5 12 9 11 12 12 11 13 13 14 15 15 15 14 17
25 19 14 9 9 5 3 4 6 7 5 5 7 4 2 9 9 8 11 8 9 10 11 12 12 12 13 14 14 15 15 15
27 21 17 14 11 5 5 2 5 6 7 8 6 7 7 7 7 9 8 9 9 10 10 12 13 11 12 13 13 14 14 15
28 22 18 14 13 8 4 4 6 5 7 8 8 8 8 7 8 9 7 12 10 11 12 13 12 13 13 15 15 14 13 13
24 21 19 18 10 6 5 5 7 6 6 7 7 7 7 8 10 9 12 10 10 12 15 12 13 13 14 15 15 15 14 13
25 21 17 17 12 8 5 3 7 6 5 6 6 8 7 10 11 12 12 10 10 11 13 13 12 14 15 15 15 14 14 15
23 20 14 15 12 9 5 5 6 5 6 6 7 6 8 8 10 9 10 12 11 13 13 14 15 15 16 15 14 14 14 15
20 18 15 16 12 8 4 2 5 6 5 5 7 7 9 9 9 9 10 11 14 15 15 15 16 16 16 16 14 16 15 15
18 17 16 15 14 11 6 3 7 6 6 6 8 8 8 8 7 10 11 12 13 13 14 15 15 15 16 15 15 16 18 15
17 18 15 13 13 12 9 5 7 6 6 6 7 8 8 9 10 11 11 12 13 14 15 15 15 16 16 16 16 17 18 19
19 18 16 15 13 10 9 7 7 5 6 5 8 8 7 8 9 11 11 12 12 14 14 15 16 16 16 16 15 17 20 23
20 19 16 14 12 9 9 7 7 5 4 5 7 6 6 8 10 10 11 11 13 13 13 15 16 16 18 13 16 19 21 21
17 19 18 15 10 8 7 7 5 4 5 5 6 7 8 10 10 10 10 11 13 13 14 14 14 15 14 17 19 21 22 23
20 16 15 13 6 6 6 5 5 4 5 5 8 9 9 9 9 10 11 11 11 12 14 13 13 14 14 20 21 23 26 25
24 21 16 11 9 7 7 6 5 6 5 6 7 8 8 9 10 12 12 12 11 12 13 12 14 13 19 25 26 24 24 24
26 23 18 14 10 8 7 7 6 6 5 7 8 8 8 9 11 12 12 12 13 12 13 14 16 14 23 27 31 22 23 22
22 20 18 14 11 8 8 7 7 6 7 7 8 8 8 10 11 11 12 11 12 14 15 15 16 14 25 28 33 23 22 23
Wind_Direction
148 156 142 134 129 113 131 100 76 227 226 259 62 75 33 41 29 42 13 17 3 354 343 360 355 354 354 346 336 340 327 328
152 157 136 149 148 162 166 136 123 58 60 34 31 31 19 30 41 36 33 18 9 351 5 358 3 354 344 336 353 335 333 332
152 150 153 158 159 145 174 131 89 41 48 50 48 335 1 248 59 20 48 10 13 1 1 1 357 356 340 345 339 332 330 346
149 155 162 173 155 154 151 108 91 59 347 33 16 306 343 46 10 28 14 13 12 10 5 358 1 346 340 337 336 342 328 329
150 160 161 167 136 123 95 78 104 85 27 49 13 17 20 12 11 29 348 24 3 11 19 11 351 349 337 334 331 330 332 326
147 158 156 155 128 152 139 143 103 84 81 51 33 34 12 354 3 357 7 13 6 15 23 5 352 346 340 336 328 325 321 318
144 149 147 118 120 135 175 174 113 85 67 63 54 39 2 1 1 359 18 349 5 6 13 359 358 345 335 327 324 320 320 311
141 141 137 134 153 154 162 185 114 92 75 61 48 33 4 10 17 7 351 352 360 5 354 357 350 338 330 325 320 316 318 316
137 140 147 140 138 152 197 174 134 99 66 48 48 25 23 15 15 360 338 357 347 348 355 352 348 337 333 328 322 317 315 315
136 143 166 138 156 136 118 169 114 87 65 51 47 36 23 19 10 4 360 345 344 347 349 348 338 336 332 329 323 322 321 321
148 155 135 142 138 132 131 82 86 76 56 39 47 33 22 8 360 12 359 352 334 340 340 337 334 334 332 332 326 325 317 320
155 136 144 140 130 138 139 117 99 83 67 45 44 38 22 6 14 13 358 337 337 340 337 334 335 335 336 332 330 326 343 331
150 149 153 141 140 137 114 116 104 84 73 60 58 35 16 14 17 9 345 342 343 339 339 337 337 336 336 334 344 344 338 326
150 146 139 131 122 127 131 104 91 70 65 61 64 40 16 24 24 354 341 345 342 341 344 349 342 340 335 354 348 341 328 320
126 118 111 114 118 128 118 110 98 74 68 63 59 36 21 27 11 342 345 0 351 349 355 348 337 341 345 355 348 337 328 319
138 127 111 105 98 122 115 96 91 77 74 62 54 37 22 20 358 341 356 356 353 352 350 341 348 344 7 356 350 338 327 321
144 142 141 141 152 156 129 118 99 81 67 61 50 33 17 18 356 3 1 352 5 7 349 352 354 350 4 355 349 338 328 325
142 144 146 154 150 151 134 121 107 99 83 66 49 27 18 19 14 3 354 359 4 3 359 4 354 348 2 355 349 339 330 329
135 135 137 141 147 133 141 126 115 93 68 54 57 26 15 25 15 8 354 359 11 7 7 2 352 354 0 356 350 341 336 336